Pagrindinis puslapis
METAR-TAF:

METAR-TAF

Oro uostai :

Perryton Ochiltree County Airport

Perryton, Teksasas, Jungtinės Amerikos Valstijos

platuma: 36-24N, ilguma: 100-44W, Aukštis: 890 m

Dabartinis oras

Ataskaita buvo paskelbta 24 minutes, ne 03:35 UTC
Vėjas 10 kt iš Pietų/Pietryčių
Temperatūra 14°C
Drėgmė 67%
Slėgis 1021 hPa
Matomumas: 16.1 km
Giedras dangus

METAR: KPYX 140335Z AUTO 15010KT 10SM CLR 14/08 A3015 RMK AO2 T01410078

Laikas: 22:59 (03:59 UTC)


TAF: trūkstamas

Orai ataskaitas ir orų prognozės (METAR, TAF).

turimą stotys yra geltonos ir raudonos taškus žemėlapyje.

Perkelti pele per norėdami pamatyti stoties vardą.

Tada spustelėkite, norėdami matyti oro stebėjimo ir prognozės.

Norėdami pakeisti žemėlapį: spustelėkite ant žalios mygtukų su juodo kryžiaus žemyn,; žalią mygtuką su brūkšneliu, jei norite nutolinti; arba žalių rodyklių gretimoms žemėlapius.


METAR-TAF: